NOAA 16 DEB, 42374

Orbit data source: Space-Track

NOAA 16 DEB, 42374 is space debris in SSO originally from a launch on Thu, 21 Sep 2000 UTC launched from the Air Force Western Test Range (AFWTR). Debris objects in space refer to the collection of defunct objects orbiting the Earth. Examples of debris include non-operational satellites, rocket bodies, and fragments generated from explosions, collisions, or faulty payload assembly.

Loading next visibility...
Identifier
42374, 2000-055RS
Orbit
SSO
Country
Flag of USUS
Related business
Manufacturer
Unknown
Mission
Spacecraft
Bus & Motor
Unknown
Mass
Unknown
Launch date (UTC)
2000-09-21 (25 years ago)
Launch vehicle
Unknown
Launch site
Air Force Western Test Range (AFWTR)
Object type
Payload
Rocket body
Debris
Shape & HBR
Unknown shape, 0.1 m
Radar Cross Section
Small (<0.1 m²)

Expand to show TLE details & history
Last TLE update: 2 days ago

TLE from 2 days ago
0 NOAA 16 DEB
1 42374U 00055RS  25286.61563546  .00040118  00000-0  82271-2 0  9995
2 42374  98.8575  52.8476 0007088  98.3927 261.8075 14.60509216492511
Epoch: 2025-10-13T14:46Z
TLE epoch observation values (Epoch: 2025-10-13T14:46:30.903Z)
Latitude
-0.00004°
Longitude
168.80298°
Altitude
695.213 km
Speed
7.508 km/s
True Right ascension
03h 31m 23s
True Declination
0° 00' 00"
Sunlit
Object was in full shadow at epoch
Visualization orbit readout
Latitude
Unknown
Longitude
Unknown
Altitude
Unknown
Speed
Unknown
Apparent Right ascension
Unknown
Apparent Declination
Unknown
Sunlit
N/A
Visualization observer readout
Local Sidereal Time
00:14:00
Azimuth
Unknown
Elevation
Unknown
Doppler factor
Unknown
Orbital elements
Apogee altitude
693.651 km
Perigee altitude
683.633 km
Semi-major axis
7,066.779 km
Eccentricity
0.00071
Inclination
98.8575°
RAAN
52.8476°
Arg. of periapsis
98.3927°
True anomaly
261.72712°
Mean anomaly
261.8075°
Eccentric anomaly
261.76731°
Mean motion
3.65351 °/min
Orbital period
98.54 mins
BSTAR
0.0082271
Loading maneuver chart data...
Computing Atmospheric mass density...
Loading historical data...
Loading historical data...
Loading historical data...
Loading historical data...
Loading historical data...
Loading historical data...
Loading historical data...

Documentation

Showing up to 5 results
|